HULIANWAN GAOGUI-02 (H*)

Last updated on Tue Sep 22 2026 00:03:16 GMT+0000 (Coordinated Universal Time)

1 60327U 24135A 26264.51940413 -.00000176 00000+0 00000+0 0 9993 2 60327 0.0652 347.1901 0004088 8.0737 345.2183 1.00278022 8458
UTC large
Height (km)
Speed (km/s)
/
Latitude / Longitude
Inclination (degrees)
Orbital Period (minutes)
Azimuth
Elevation
Range (km)
Doppler Factor

Next 0 passes for location: London (51.5072 / 0.1276)

No passes found over London.
HULIANWAN GAOGUI-02 (H*)